ARIANE 5 DEB (SYLDA), 41750

Orbit data source: Space-Track

ARIANE 5 DEB (SYLDA), 41750 is space debris in HEO originally from a launch on Wed, 24 Aug 2016 UTC launched from the French Guiana (FRGUI). Debris objects in space refer to the collection of defunct objects orbiting the Earth. Examples of debris include non-operational satellites, rocket bodies, and fragments generated from explosions, collisions, or faulty payload assembly.

Loading next visibility...
Identifier
41750, 2016-053D
Orbit
HEO
Country
Flag of FRFR
Related business
Manufacturer
ADS/Bremen
Mission
Spacecraft
Bus & Motor
SYLDA 5, Unknown motor
Mass
440 kg wet, 440 kg dry
Launch date (UTC)
2016-08-24 (10 years ago)
Launch vehicle
Unknown
Launch site
French Guiana (FRGUI)
Object type
Payload
Rocket body
Debris
Shape & HBR
Cyl, 2.8 m
Radar Cross Section
27.391 m², Large (>1 m²)

Expand to show TLE details & history
Last TLE update: 12 hours ago

TLE from 12 hours ago
0 ARIANE 5 DEB (SYLDA)
1 41750U 16053D   26121.22726351  .00021212  00000-0  54030-2 0  9994
2 41750   6.0770 228.2823 5798932 309.9612  12.0158  4.32821218106251
Epoch: 2026-05-01T05:27Z
TLE epoch observation values (Epoch: 2026-05-01T05:27:15.567Z)
Latitude
0.00002°
Longitude
-72.7244°
Altitude
1,307.601 km
Speed
8.869 km/s
True Right ascension
15h 13m 00s
True Declination
0° 00' 00"
Sunlit
Object was in full shadow at epoch
Visualization orbit readout
Latitude
Unknown
Longitude
Unknown
Altitude
Unknown
Speed
Unknown
Apparent Right ascension
Unknown
Apparent Declination
Unknown
Sunlit
N/A
Visualization observer readout
Local Sidereal Time
01:14:52
Azimuth
Unknown
Elevation
Unknown
Doppler factor
Unknown
Orbital elements
Apogee altitude
18,757.794 km
Perigee altitude
305.717 km
Semi-major axis
15,909.892 km
Eccentricity
0.57989
Inclination
6.077°
RAAN
228.2823°
Arg. of periapsis
309.9612°
True anomaly
50.27832°
Mean anomaly
12.0158°
Eccentric anomaly
27.20635°
Mean motion
1.08154 °/min
Orbital period
332.86 mins
BSTAR
0.005403
Loading maneuver chart data...
Computing Atmospheric mass density...
Loading historical data...
Loading historical data...
Loading historical data...
Loading historical data...
Loading historical data...
Loading historical data...
Loading historical data...

Documentation

Showing up to 5 results
|